TimeCET,TemperatureF,Dew PointF,Humidity,Sea Level PressureIn,VisibilityMPH,Wind Direction,Wind SpeedMPH,Gust SpeedMPH,PrecipitationIn,Events,Conditions,WindDirDegrees,DateUTC
12:55 AM,17.6,-4.0,38,30.01,-9999.0,SSE,38.0,-,N/A,,Clear,150,2013-03-04 23:55:00
1:00 AM,17,-4,24,,6,SSE,38.0,,,,,150,2013-03-05 00:00:00
1:55 AM,15.8,-4.0,41,29.98,-9999.0,SSE,33.4,-,N/A,,Clear,150,2013-03-05 00:55:00
2:55 AM,14.0,-5.8,41,29.98,-9999.0,SSE,20.7,-,N/A,,Clear,160,2013-03-05 01:55:00
3:55 AM,14.0,-9.4,35,29.95,-9999.0,SE,40.3,-,N/A,,Clear,140,2013-03-05 02:55:00
4:00 AM,15,-10,17,,6,SE,40.3,,,,Clear,140,2013-03-05 03:00:00
4:55 AM,15.8,-11.2,30,29.95,-9999.0,SSE,24.2,-,N/A,,Clear,160,2013-03-05 03:55:00
5:55 AM,15.8,-13.0,27,29.92,-9999.0,SSE,36.8,-,N/A,,Clear,150,2013-03-05 04:55:00
6:55 AM,14.0,-13.0,29,29.92,6.2,SSE,27.6,-,N/A,,Partly Cloudy,150,2013-03-05 05:55:00
7:00 AM,14,-14,14,,37,SSE,27.6,,,,Scattered Clouds,150,2013-03-05 06:00:00
7:55 AM,15.8,-13.0,27,29.92,6.2,SE,33.4,-,N/A,,Partly Cloudy,140,2013-03-05 06:55:00
8:55 AM,15.8,-11.2,30,29.92,6.2,SSE,34.5,-,N/A,,Mostly Cloudy,150,2013-03-05 07:55:00
9:55 AM,15.8,-9.4,32,29.95,6.2,SSE,17.3,-,N/A,,Mostly Cloudy,150,2013-03-05 08:55:00
10:00 AM,15,-9,19,,16,SSE,17.3,,,,Overcast,150,2013-03-05 09:00:00
10:55 AM,15.8,-7.6,35,29.95,3.1,SSE,17.3,-,N/A,,Mostly Cloudy,150,2013-03-05 09:55:00
11:55 AM,15.8,1.4,53,29.95,0.3,SSE,35.7,-,N/A,Fog,Light Freezing Fog,150,2013-03-05 10:55:00
12:55 PM,15.8,5.0,62,29.92,0.3,SSE,32.2,-,N/A,Fog,Light Freezing Fog,150,2013-03-05 11:55:00
1:55 PM,15.8,8.6,73,29.92,0.2,South,19.6,-,N/A,Fog-Snow,Light Snow,180,2013-03-05 12:55:00
2:55 PM,15.8,12.2,86,29.92,0.2,South,28.8,-,N/A,Fog-Snow,Light Snow,170,2013-03-05 13:55:00
3:55 PM,17.6,14.0,86,29.89,0.2,SSE,25.3,-,N/A,Fog-Snow,Light Snow,160,2013-03-05 14:55:00
4:00 PM,18,15,81,,0,SSE,25.3,,,Snow,Light Snow,160,2013-03-05 15:00:00
4:55 PM,17.6,14.0,86,29.89,0.2,SSE,26.5,-,N/A,Fog-Snow,Light Snow,150,2013-03-05 15:55:00
5:55 PM,15.8,14.0,93,29.89,0.2,South,18.4,-,N/A,Fog-Snow,Light Snow,170,2013-03-05 16:55:00
6:55 PM,15.8,15.8,100,29.89,0.2,South,25.3,-,N/A,Fog-Snow,Light Snow,170,2013-03-05 17:55:00
7:00 PM,16,15,95,,0,South,25.3,,,Snow,Light Snow,170,2013-03-05 18:00:00
7:55 PM,15.8,15.8,100,29.89,0.2,South,18.4,-,N/A,Fog-Snow,Light Snow,170,2013-03-05 18:55:00
8:55 PM,15.8,15.8,100,29.86,0.2,SSE,28.8,-,N/A,Fog-Snow,Light Snow,150,2013-03-05 19:55:00
9:55 PM,15.8,15.8,100,29.86,0.1,South,11.5,-,N/A,Fog-Snow,Light Snow,180,2013-03-05 20:55:00
10:00 PM,15,15,100,,0,South,11.5,,,Snow,Light Snow,180,2013-03-05 21:00:00
10:55 PM,17.6,17.6,100,29.86,0.1,SE,26.5,-,N/A,Fog-Snow,Light Snow,140,2013-03-05 21:55:00
11:55 PM,15.8,15.8,100,29.83,0.1,SSE,17.3,-,N/A,Fog-Snow,Light Snow,160,2013-03-05 22:55:00